Location: *
(37.5724°S, 58.0067°E)
Time: 11:33:07
(UTC+00:00)

CSL-04 Debris - Pass Details

Date: 26 September 2020
Orbit: 827 x 847 km, 98.9° (Epoch: 29 October)

Event Time Altitude Azimuth Distance (km) Brightness Sun altitude
Rises 15:44:51 0° 163° (SSE) 3,429 7.4 -19.6°
Reaches altitude 10° 15:47:16 10° 160° (SSE) 2,484 6.6 -20.1°
Maximum altitude 15:52:44 64° 78° (ENE) 934 4.1 -21.1°
Drops below altitude 10° 15:58:06 10° 357° (N) 2,439 6.4 -22.1°
Sets 16:00:27 0° 353° (N) 3,363 7.2 -22.5°
